Flag for Canada Weather past 2 weeks in Welland, Ontario, Canada

Now
62 °F

Cool.


Feels Like: 62 °F
Forecast: 56 / 76 °F
Wind: 7 mph from Northeast

Location: Port Colborne Airport

Current Time: Jul 4, 2015 at 4:51:26 AM

Latest Report: Jul 4, 2015 at 4:00 AM


Visibility: N/A

Pressure: 29.90 "Hg

Humidity: 61%

Dew point: 48 °F

Location of WellandLocation

Historic Weather in Welland — Graph

°F

Welland temperature yesterday

Maximum temperature yesterday: 73 °F (at 4:00 PM)
Minimum temperature yesterday: 57 °F (at 6:00 AM)
Average temperature yesterday: 64 °F

Past Weeks' High & Low Weather Summary

 TemperatureHumidityPressure
High73 °F (Jul 3, 4:00 PM)99% (Jun 28, 8:00 AM)30.14 "Hg (Jun 28, 8:00 AM)
Low54 °F (Jun 28, 8:00 AM)35% (Jul 3, 4:00 PM)29.66 "Hg (Jun 28, 6:00 AM)
Average64 °F76%29.92 "Hg
* Reported Jun 19 3:00 AM — Jul 4 3:00 AM, Welland, Weather by CustomWeather, © 2015

Note: Actual official high and low records may vary slightly from our data, if they occured in-between our weather recording intervals... More about our weather records

Advertising

Welland weather history for previous 24 hours

 ConditionsComfort  
Time TempWeatherWind HumidityBarometerVisibility
3:00 AM
Sat, Jul 4
62 °FCool.7 mph61%29.90 "HgN/A
2:00 AM62 °FMild.9 mph61%29.90 "HgN/A
1:00 AM63 °FMild.9 mph59%29.92 "HgN/A
12:00 AM63 °FMild.9 mph52%29.93 "HgN/A
11:00 PM
Fri, Jul 3
64 °FMild.7 mph56%29.94 "HgN/A
10:00 PM65 °FMild.8 mph57%29.93 "HgN/A
9:00 PM66 °FMild.8 mph56%29.93 "HgN/A
8:00 PM68 °FMild.13 mph52%29.93 "HgN/A
7:00 PM69 °FMild.13 mph49%29.93 "HgN/A
6:00 PM71 °FMild.13 mph47%29.93 "HgN/A
5:00 PM73 °FMild.2 mph42%29.94 "HgN/A
4:00 PM73 °FMild.No wind35%29.96 "HgN/A
3:00 PM69 °FMild.3 mph38%29.98 "HgN/A
2:00 PM67 °FMild.3 mph37%29.99 "HgN/A
1:00 PM66 °FMild.2 mph49%30.01 "HgN/A
12:00 PM63 °FMild.2 mph60%30.02 "HgN/A
11:00 AM61 °FCool.3 mph75%30.03 "HgN/A
10:00 AM61 °FCool.6 mph75%30.03 "HgN/A
9:00 AM61 °FCool.5 mph61%30.03 "HgN/A
8:00 AM59 °FCool.6 mph64%30.03 "HgN/A
7:00 AM58 °FCool.7 mph65%30.02 "HgN/A
6:00 AM57 °FCool.7 mph67%30.02 "HgN/A
5:00 AM58 °FCool.5 mph62%30.01 "HgN/A
4:00 AM58 °FCool.6 mph67%30.00 "HgN/A
Weather by CustomWeather, © 2015

See weather overviewHow to use our weather pages